Location: Poughquag
(41.6090°N, 73.6820°W)
Time: 07:24:16
(UTC-05:00)

STRAND 1 - Pass Details

Date: 07 December 2023
Orbit: 766 x 778 km, 98.4° (Epoch: 24 February)

Event Time Altitude Azimuth Distance (km) Brightness Sun altitude
Rises 06:19:39 0° 189° (S) 3,231 ? -8.9°
Reaches altitude 10° 06:22:09 10° 199° (SSW) 2,307 ? -8.5°
Maximum altitude 06:26:44 34° 263° (W) 1,261 ? -7.7°
Drops below altitude 10° 06:31:20 10° 328° (NNW) 2,316 ? -6.9°
Sets 06:33:52 0° 338° (NNW) 3,246 ? -6.5°
